Location: Unspecified
(0.0000°N, 0.0000°E)
Time: 20:44:20
(UTC+00:00)

GALILEO 9 (205) - Pass Details

Date: 12 December 2022
Orbit: 23203 x 23241 km, 55.5° (Epoch: 05 February)

Event Time Altitude Azimuth Distance (km) Brightness Sun altitude
Rises 22:30:04 0° 327° (NNW) 28,889 ? -59.3°
Reaches altitude 10° 23:04:44 10° 329° (NNW) 27,803 ? -64.1°
Maximum altitude 01:53:48 49° 272° (W) 24,510 ? -52.8°
Drops below altitude 10° 11:35:07 10° 35° (NE) 27,792 ? 66.5°
Sets 12:09:38 0° 33° (NNE) 28,886 ? 66.6°
